Regional Weather Roundup
Issued by NWS

Home | Current Version | Previous Version | Text Only | Print | Product List | Glossary Off
Versions: 1 2 3 4 5 6 7 8 9 10 11 12 13 14 15 16 17 18 19 20 21 22 23 24 25 26 27 28 29 30 31 32 33 34 35 36 37 38 39 40 41 42 43 44 45 46 47 48 49 50

368
ASUS45 KTFX 192210
RWRMT
MONTANA REGIONAL WEATHER ROUNDUP
NATIONAL WEATHER SERVICE GREAT FALLS MT
300 PM MST SUN NOV 19 2017

NOTE: "FAIR" INDICATES FEW OR NO CLOUDS BELOW 12000 FEET WITH NO
SIGNIFICANT WEATHER AND/OR OBSTRUCTIONS TO VISIBILITY.

MTZ001>007-043-192300-
WEST OF THE DIVIDE

CITY           SKY/WX    TMP DP  RH WIND       PRES   REMARKS
KALISPELL      PTSUNNY   44  25  47 S13       29.84F
MISSOULA       FAIR      39  24  55 W6        29.89F
BUTTE          FAIR      43   6  21 CALM      29.87F
MULLAN PASS    FAIR      28  18  66 SW8       29.81F WCI  20
ANACONDA         N/A     43  10  26 S12G18    29.83F
DEER LODGE       N/A     36  16  44 W3        29.86F
EUREKA           N/A     45  21  39 MISG      29.81F
HAMILTON         N/A     50  12  22 SE10      29.88F
LIBBY            N/A     36  28  75 S5        29.81F
PLAINS           N/A     43  29  58 CALM      29.88F
RONAN            N/A     45  27  49 SW2       29.92
$$

MTZ008-052>055-192300-
SOUTHWEST MONTANA

CITY           SKY/WX    TMP DP  RH WIND       PRES   REMARKS
BOZEMAN        FAIR      35  20  54 S5        29.87F
DILLON         FAIR      45  14  28 SW12      29.90F
W YELLOWSTONE  FAIR      30  16  55 SW10      30.06F WCI  21
ENNIS          CLOUDY    41  12  30 S29G35    29.97F
TWIN BRIDGES     N/A     47  14  26 CALM      29.90F
$$

MTZ009-010-012-014-046-048-049-054-192300-
EAST SLOPES AND CENTRAL MONTANA

CITY           SKY/WX    TMP DP  RH WIND       PRES   REMARKS
CUT BANK       FAIR      44  14  29 SW33G45   29.58F
GREAT FALLS    FAIR      48   8  19 SW30G45   29.71F
MALMSTROM AFB  FAIR      49   8  19 SW32      29.71F
HELENA         FAIR      44  24  45 NW5       29.81F
BOWMANS CRNR   FAIR      43  12  28 S28G37    29.68F
CHOTEAU          N/A     50   7  17 SW17G23   29.64F
FAIRFIELD      FAIR      47  12  24 S30G43    29.63F
POWER          FAIR      47  11  23 S22G35    29.67F
RAYNESFORD     PTSUNNY   49   5  17 SW24G35   29.73F
ULM            FAIR      49   9  20 SW26G33   29.72F
$$

MTZ011-013-016-021-045-047-050-051-192300-
NORTH CENTRAL MONTANA

CITY           SKY/WX    TMP DP  RH WIND       PRES   REMARKS
HAVRE          FAIR      46  20  35 SW18      29.61F
LEWISTOWN      FAIR      47  11  23 SW20      29.69F
N BAR RANCH    FAIR      52   1  12 W9G21     29.71F
CHINOOK          N/A     52  12  20 SW15G24   29.60F
DENTON         FAIR      49   8  18 MISG      29.61F
GEYSER         PTSUNNY   48   4  16 W40G52    29.62F
GRASS RANGE    FAIR      52   6  15 W20G28    29.64F
STANFORD       PTSUNNY   50   3  14 W32G40    29.65F
WINIFRED       FAIR      50   9  18 W17G28    29.66F
$$

MTZ017>020-022>027-061-062-192300-
NORTHEAST MONTANA

CITY           SKY/WX    TMP DP  RH WIND       PRES   REMARKS
GLASGOW        FAIR      46  23  40 S6        29.64F
GLENDIVE       FAIR      41  22  46 S9        29.72F
JORDAN           N/A     52  21  29 W9        29.66F
SIDNEY         FAIR      40  22  48 S13       29.70F
WOLF POINT     FAIR      47  25  42 CALM      29.67F
MALTA          SUNNY     46  23  39 CALM      29.61F
PLENTYWOOD       N/A     43  21  42 CALM      29.65F
POPLAR           N/A     45  23  42 S7        29.67F
SCOBEY           N/A     44  18  35 S12       29.63F
$$

MTZ028>42-056>058-192300-
SOUTHCENTRAL AND SOUTHEAST MONTANA

CITY           SKY/WX    TMP DP  RH WIND       PRES   REMARKS
BAKER          FAIR      47  21  35 SW7       29.75F
BILLINGS       FAIR      49  16  26 SW17      29.78F
LIVINGSTON     FAIR      46  13  26 W38G48    29.82F
MILES CITY     FAIR      45  26  47 SE7       29.73F
BIG TIMBER     SUNNY     46  12  25 W26       29.81F
EKALAKA          N/A     49  16  27 CALM      29.77S
FORSYTH          N/A     54  14  20 W15       29.72F
HARLOWTON      FAIR      41  17  36 W35G41    29.72F
LAUREL           N/A     50  14  23 SW20G29   29.78F
$$

REGIONAL REPORTS...DAKOTAS

CITY           SKY/WX    TMP DP  RH WIND       PRES   REMARKS
WILLISTON      FAIR      43  23  45 S6        29.69F
MINOT          FAIR      40  25  55 S5        29.71F
DICKINSON      FAIR      42  20  41 S6        29.73F
BEACH          FAIR      43  21  42 SW8       29.76F
CROSBY         FAIR      37  23  56 SW12G22   29.65F WCI  30
TIOGA          FAIR      39  23  52 S7        29.69F
BISMARCK       FAIR      46  26  45 CALM      29.78F
GRAND FORKS    FAIR      31  25  78 S3        29.79F
FARGO          FAIR      44  25  47 W7        29.79S
BUFFALO SD       N/A     49  19  30 SW8       29.71F
RAPID CITY     FAIR      53  18  25 SE9       29.80F
$$

REGIONAL REPORTS...WYOMING/IDAHO/WASHINGTON

CITY           SKY/WX    TMP DP  RH WIND       PRES   REMARKS
GILLETTE       FAIR      49  15  25 SW20      29.79F
SHERIDAN       FAIR      47  32  56 W3        29.78F
BUFFALO WY     FAIR      38  17  42 VRB3      29.80F
CODY           FAIR      50   4  15 W22G32    29.87F
YELLOWSTONE LA   N/A     27  15  61 SW3       30.07F
IDAHO FALLS    FAIR      40  23  50 W3        30.12F
SALMON         FAIR      39  20  46 NW5       30.00F
BOISE          FAIR      49  24  37 S10       30.06F
SPOKANE        CLOUDY    42  26  53 S13       29.83F
$$

REGIONAL REPORTS...ALBERTA

CITY           SKY/WX    TMP DP  RH WIND       PRES   REMARKS
EDMONTON       CLOUDY    25  16  68 E6        29.22F WCI  18
CALGARY        PTSUNNY   41  21  45 VRB2      29.31F
LETHBRIDGE     PTSUNNY   41  25  52 W16G22    29.51F
MEDICINE HAT   CLOUDY    41  28  60 SW28G37   29.45F
$$

REGIONAL REPORTS...SASKATCHEWAN

CITY           SKY/WX    TMP DP  RH WIND       PRES   REMARKS
SWIFT CURRENT  CLEAR     36  25  64 SW17G23   29.48F WCI  25
REGINA         MOCLDY    21  18  86 SE14      29.58F WCI   8
SASKATOON      CLOUDY    16  10  79 E15       29.50F WCI   1
$$




USA.gov is the U.S. government's official web portal to all federal, state and local government web resources and services.